User: anonymous   Login
Location: *
(48.8780°N, 19.2358°E)
Time: 12:43:41
(UTC+00:00)
Language:

Cosmos 292 Rocket - Orbit

View from above orbital plane
View from above orbital plane
View from above satellite
View from above satellite

Ground track
Ground track

The orbit data is extracted from the following two-line orbital elements,

1  4071U 69070B   19348.81755906  .00000102  00000-0  26076-4 0  9998
2  4071  74.0469 177.2552 0015740 282.6249  77.3158 14.62809955671007
Epoch (UTC): 14 December 2019 19:37:17
Eccentricity: 0.0015740
inclination: 74.0469°
perigee height: 673 km
apogee height: 695 km
right ascension of ascending node: 177.2552°
argument of perigee: 282.6249°
revolutions per day: 14.62809955
mean anomaly at epoch: 77.3158°
orbit number at epoch: 67100

The dashed part of the orbit path shows where the satellite is in the earth's shadow,  

DLR